STARLINK-36840

Last updated on Mon Mar 23 2026 00:02:07 GMT+0000 (Coordinated Universal Time)

1 67850U 26034A 26081.16668981 -.01923536 00000+0 -20017-1 0 9994 2 67850 53.1590 148.9968 0001256 82.1569 86.3421 15.67025924 5911
UTC large
Height (km)
Speed (km/s)
/
Latitude / Longitude
Inclination (degrees)
Orbital Period (minutes)
Azimuth
Elevation
Range (km)
Doppler Factor

Next 0 passes for location: London (51.5072 / 0.1276)

Sorry there are no passes over London.